TimeCDT,TemperatureF,Dew PointF,Humidity,Sea Level PressureIn,VisibilityMPH,Wind Direction,Wind SpeedMPH,Gust SpeedMPH,PrecipitationIn,Events,Conditions,WindDirDegrees,DateUTC
12:15 AM,60.8,42.8,52,29.90,10.0,SSE,8.1,-,N/A,,Clear,160,2012-10-04 05:15:00
12:35 AM,60.8,42.8,52,29.89,10.0,SSE,8.1,-,N/A,,Clear,160,2012-10-04 05:35:00
12:55 AM,59.0,42.8,55,29.89,10.0,South,8.1,-,N/A,,Clear,170,2012-10-04 05:55:00
1:15 AM,57.2,42.8,59,29.88,10.0,SSE,9.2,-,N/A,,Clear,160,2012-10-04 06:15:00
1:34 AM,59.0,42.8,55,29.88,10.0,SSE,6.9,-,N/A,,Clear,160,2012-10-04 06:34:00
1:55 AM,59.0,42.8,55,29.88,10.0,South,8.1,-,N/A,,Clear,180,2012-10-04 06:55:00
2:14 AM,57.2,42.8,59,29.88,10.0,South,9.2,-,N/A,,Clear,180,2012-10-04 07:14:00
2:35 AM,57.2,42.8,59,29.87,10.0,South,12.7,-,N/A,,Clear,190,2012-10-04 07:35:00
2:55 AM,57.2,42.8,59,29.87,10.0,South,11.5,-,N/A,,Clear,190,2012-10-04 07:55:00
3:15 AM,57.2,42.8,59,29.86,10.0,SSW,11.5,17.3,N/A,,Clear,200,2012-10-04 08:15:00
3:35 AM,57.2,42.8,59,29.88,10.0,SSW,9.2,-,N/A,,Clear,210,2012-10-04 08:35:00
3:54 AM,57.2,42.8,59,29.88,10.0,SW,10.4,-,N/A,,Clear,220,2012-10-04 08:54:00
4:15 AM,57.2,39.2,51,29.88,10.0,WSW,12.7,-,N/A,,Clear,250,2012-10-04 09:15:00
4:35 AM,55.4,39.2,54,29.90,10.0,West,11.5,-,N/A,,Clear,270,2012-10-04 09:35:00
4:55 AM,51.8,39.2,62,29.91,10.0,West,16.1,24.2,N/A,,Clear,260,2012-10-04 09:55:00
5:14 AM,51.8,41.0,67,29.91,10.0,West,13.8,20.7,N/A,,Clear,270,2012-10-04 10:14:00
5:35 AM,50.0,41.0,71,29.93,10.0,West,16.1,-,N/A,,Clear,270,2012-10-04 10:35:00
5:55 AM,50.0,41.0,71,29.93,10.0,WSW,11.5,-,N/A,,Clear,250,2012-10-04 10:55:00
6:15 AM,48.2,41.0,76,29.95,10.0,West,13.8,20.7,N/A,,Mostly Cloudy,270,2012-10-04 11:15:00
6:35 AM,48.2,39.2,71,29.96,10.0,West,19.6,27.6,N/A,,Scattered Clouds,280,2012-10-04 11:35:00
6:55 AM,48.2,39.2,71,29.96,10.0,West,9.2,23.0,N/A,,Scattered Clouds,270,2012-10-04 11:55:00
7:15 AM,48.2,39.2,71,29.97,10.0,West,11.5,20.7,N/A,,Mostly Cloudy,270,2012-10-04 12:15:00
7:35 AM,48.2,39.2,71,29.98,10.0,West,15.0,23.0,N/A,,Mostly Cloudy,280,2012-10-04 12:35:00
7:54 AM,46.4,39.2,76,29.97,10.0,West,12.7,21.9,N/A,,Scattered Clouds,280,2012-10-04 12:54:00
8:14 AM,46.4,39.2,76,29.97,10.0,West,16.1,26.5,N/A,,Clear,280,2012-10-04 13:14:00
8:35 AM,46.4,39.2,76,29.99,10.0,West,17.3,25.3,N/A,Rain,Light Rain,270,2012-10-04 13:35:00
8:55 AM,46.4,37.4,71,30.00,10.0,West,18.4,26.5,N/A,,Mostly Cloudy,280,2012-10-04 13:55:00
9:14 AM,48.2,37.4,66,30.00,10.0,West,11.5,20.7,N/A,,Mostly Cloudy,270,2012-10-04 14:14:00
9:35 AM,46.4,35.6,66,30.00,10.0,WNW,23.0,27.6,N/A,,Scattered Clouds,290,2012-10-04 14:35:00
9:55 AM,46.4,33.8,62,30.01,10.0,WNW,17.3,28.8,N/A,,Clear,290,2012-10-04 14:55:00
10:15 AM,46.4,33.8,62,30.02,10.0,West,20.7,28.8,N/A,,Clear,270,2012-10-04 15:15:00
10:35 AM,46.4,33.8,62,30.04,10.0,West,19.6,29.9,N/A,,Clear,280,2012-10-04 15:35:00
10:55 AM,48.2,33.8,58,30.04,10.0,West,15.0,27.6,N/A,,Scattered Clouds,280,2012-10-04 15:55:00
11:15 AM,48.2,33.8,58,30.05,10.0,WNW,18.4,26.5,N/A,,Scattered Clouds,290,2012-10-04 16:15:00
11:35 AM,48.2,33.8,58,30.05,10.0,West,16.1,29.9,N/A,,Scattered Clouds,280,2012-10-04 16:35:00
11:54 AM,50.0,33.8,54,30.06,10.0,West,19.6,28.8,N/A,,Scattered Clouds,280,2012-10-04 16:54:00
12:15 PM,50.0,33.8,54,30.06,10.0,WNW,20.7,31.1,N/A,,Clear,290,2012-10-04 17:15:00
12:35 PM,51.8,33.8,50,30.07,10.0,West,17.3,26.5,N/A,,Scattered Clouds,270,2012-10-04 17:35:00
12:54 PM,51.8,32.0,47,30.08,10.0,West,19.6,28.8,N/A,,Scattered Clouds,280,2012-10-04 17:54:00
1:35 PM,51.8,32.0,47,30.09,10.0,WNW,19.6,28.8,N/A,,Scattered Clouds,300,2012-10-04 18:35:00
1:54 PM,51.8,30.2,44,30.09,10.0,WNW,24.2,31.1,N/A,,Scattered Clouds,290,2012-10-04 18:54:00
2:15 PM,53.6,30.2,41,30.09,10.0,WNW,24.2,32.2,N/A,,Mostly Cloudy,290,2012-10-04 19:15:00
2:35 PM,51.8,30.2,44,30.09,10.0,WNW,19.6,31.1,N/A,,Scattered Clouds,290,2012-10-04 19:35:00
2:55 PM,53.6,30.2,41,30.09,10.0,West,19.6,24.2,N/A,,Clear,280,2012-10-04 19:55:00
3:15 PM,51.8,30.2,44,30.10,10.0,WNW,25.3,32.2,N/A,,Clear,290,2012-10-04 20:15:00
3:34 PM,51.8,30.2,44,30.11,10.0,WNW,23.0,29.9,N/A,,Clear,290,2012-10-04 20:34:00
3:55 PM,53.6,30.2,41,30.11,10.0,WNW,19.6,26.5,N/A,,Scattered Clouds,300,2012-10-04 20:55:00
4:15 PM,51.8,30.2,44,30.11,10.0,WNW,20.7,27.6,N/A,,Mostly Cloudy,290,2012-10-04 21:15:00
4:34 PM,51.8,30.2,44,30.11,10.0,WNW,20.7,27.6,N/A,,Scattered Clouds,300,2012-10-04 21:34:00
4:55 PM,51.8,30.2,44,30.12,10.0,WNW,18.4,27.6,N/A,,Scattered Clouds,300,2012-10-04 21:55:00
5:15 PM,50.0,30.2,47,30.13,10.0,NW,19.6,24.2,N/A,,Scattered Clouds,310,2012-10-04 22:15:00
5:35 PM,48.2,28.4,46,30.13,10.0,WNW,18.4,28.8,N/A,,Clear,290,2012-10-04 22:35:00
5:55 PM,48.2,30.2,50,30.13,10.0,WNW,18.4,26.5,N/A,,Clear,300,2012-10-04 22:55:00
6:15 PM,48.2,28.4,46,30.14,10.0,WNW,18.4,24.2,N/A,,Scattered Clouds,300,2012-10-04 23:15:00
6:35 PM,46.4,30.2,53,30.14,10.0,WNW,16.1,-,N/A,,Mostly Cloudy,290,2012-10-04 23:35:00
6:55 PM,46.4,28.4,50,30.15,10.0,NW,13.8,23.0,N/A,,Scattered Clouds,310,2012-10-04 23:55:00
7:15 PM,44.6,28.4,53,30.16,10.0,WNW,12.7,-,N/A,,Clear,300,2012-10-05 00:15:00
7:35 PM,44.6,28.4,53,30.16,10.0,WNW,9.2,16.1,N/A,,Clear,290,2012-10-05 00:35:00
7:55 PM,44.6,28.4,53,30.17,10.0,West,8.1,-,N/A,,Scattered Clouds,280,2012-10-05 00:55:00
9:14 PM,44.6,28.4,53,30.18,10.0,WNW,12.7,21.9,N/A,,Overcast,300,2012-10-05 02:14:00
9:35 PM,44.6,28.4,53,30.17,10.0,NW,17.3,29.9,N/A,,Overcast,310,2012-10-05 02:35:00
9:55 PM,44.6,28.4,53,30.17,10.0,NW,18.4,25.3,N/A,,Mostly Cloudy,310,2012-10-05 02:55:00
10:14 PM,42.8,28.4,57,30.17,10.0,NW,19.6,27.6,N/A,,Scattered Clouds,310,2012-10-05 03:14:00
10:35 PM,42.8,28.4,57,30.17,10.0,NW,13.8,-,N/A,,Clear,310,2012-10-05 03:35:00
10:54 PM,42.8,28.4,57,30.18,10.0,NW,13.8,18.4,N/A,,Clear,310,2012-10-05 03:54:00
11:15 PM,42.8,28.4,57,30.17,10.0,WNW,8.1,-,N/A,,Clear,300,2012-10-05 04:15:00
11:35 PM,41.0,30.2,65,30.17,10.0,WNW,9.2,-,N/A,,Clear,300,2012-10-05 04:35:00
11:55 PM,42.8,30.2,61,30.17,10.0,WNW,8.1,-,N/A,,Mostly Cloudy,300,2012-10-05 04:55:00